• In Hungary
  • List of Countries
  • For 7 days
  • Water Temperature
  • Satellite Maps
  • Weather Map
  • News
  • Weather Widgets
  • user-avatar
    Login

    Hourly Weather Kyzylbulak

    Today, 24 June, Sunday

    Time Temperature Precipitation Wind Pressure Humidity
    00:00 +19°C° 0 mm 3 mps 747 mmHg 77%
    01:00 +18°C° 0 mm 3 mps 747 mmHg 81%
    02:00 +18°C° 0 mm 3 mps 748 mmHg 83%
    03:00 +17°C° 0 mm 3 mps 748 mmHg 85%
    04:00 +17°C° 0 mm 2 mps 748 mmHg 86%
    05:00 +18°C° 0 mm 3 mps 748 mmHg 81%
    06:00 +20°C° 0 mm 3 mps 748 mmHg 75%
    07:00 +21°C° 0 mm 3 mps 749 mmHg 70%
    08:00 +24°C° 0 mm 3 mps 749 mmHg 62%
    09:00 +25°C° 0 mm 4 mps 749 mmHg 55%
    10:00 +27°C° 0 mm 4 mps 749 mmHg 47%
    11:00 +28°C° 0 mm 5 mps 749 mmHg 44%
    12:00 +29°C° 0 mm 5 mps 749 mmHg 41%
    13:00 +30°C° 0 mm 5 mps 749 mmHg 38%
    14:00 +30°C° 0 mm 5 mps 749 mmHg 38%
    15:00 +30°C° 0 mm 5 mps 749 mmHg 37%
    16:00 +30°C° 0 mm 5 mps 749 mmHg 37%
    17:00 +30°C° 0 mm 4 mps 749 mmHg 41%
    18:00 +29°C° 0 mm 4 mps 749 mmHg 45%
    19:00 +28°C° 0 mm 3 mps 750 mmHg 49%
    20:00 +26°C° 0 mm 3 mps 750 mmHg 55%
    21:00 +24°C° 0 mm 3 mps 750 mmHg 60%
    22:00 +21°C° 0 mm 3 mps 750 mmHg 66%
    23:00 +21°C° 0 mm 3 mps 750 mmHg 69%

    Tomorrow, 25 June, Monday

    Time Temperature Precipitation Wind Pressure Humidity
    00:00 +20°C° 0 mm 2 mps 751 mmHg 72%
    01:00 +19°C° 0 mm 2 mps 751 mmHg 75%
    02:00 +19°C° 0 mm 2 mps 751 mmHg 79%
    03:00 +18°C° 0 mm 2 mps 751 mmHg 82%
    04:00 +18°C° 0 mm 2 mps 751 mmHg 85%
    05:00 +19°C° 0 mm 2 mps 752 mmHg 80%
    06:00 +20°C° 0 mm 2 mps 752 mmHg 75%
    07:00 +23°C° 0 mm 2 mps 752 mmHg 70%
    08:00 +25°C° 0 mm 2 mps 752 mmHg 64%
    09:00 +26°C° 0 mm 2 mps 752 mmHg 57%
    10:00 +28°C° 0 mm 1 mps 752 mmHg 51%
    11:00 +29°C° 0 mm 1 mps 752 mmHg 46%
    12:00 +30°C° 0 mm 1 mps 752 mmHg 41%
    13:00 +31°C° 0 mm 1 mps 752 mmHg 36%
    14:00 +31°C° 0 mm 2 mps 752 mmHg 35%
    15:00 +32°C° 0 mm 2 mps 752 mmHg 34%
    16:00 +32°C° 0 mm 2 mps 752 mmHg 33%
    17:00 +31°C° 0 mm 2 mps 752 mmHg 37%
    18:00 +31°C° 0 mm 3 mps 752 mmHg 41%
    19:00 +30°C° 0 mm 3 mps 752 mmHg 45%
    20:00 +28°C° 0 mm 3 mps 752 mmHg 50%
    21:00 +26°C° 0 mm 3 mps 752 mmHg 55%
    22:00 +24°C° 0 mm 3 mps 752 mmHg 60%
    23:00 +23°C° 0 mm 2 mps 752 mmHg 63%

    Day after tomorrow, 26 June, Tuesday

    Time Temperature Precipitation Wind Pressure Humidity
    00:00 +23°C° 0 mm 2 mps 752 mmHg 66%
    01:00 +21°C° 0 mm 2 mps 751 mmHg 68%
    02:00 +21°C° 0 mm 2 mps 751 mmHg 70%
    03:00 +20°C° 0 mm 2 mps 751 mmHg 72%
    04:00 +20°C° 0 mm 2 mps 751 mmHg 74%
    05:00 +21°C° 0 mm 3 mps 751 mmHg 71%
    06:00 +22°C° 0 mm 3 mps 751 mmHg 69%
    07:00 +25°C° 0 mm 3 mps 751 mmHg 66%
    08:00 +27°C° 0 mm 4 mps 751 mmHg 61%
    09:00 +28°C° 0 mm 4 mps 751 mmHg 56%
    10:00 +30°C° 0 mm 5 mps 751 mmHg 51%
    11:00 +32°C° 0 mm 5 mps 751 mmHg 49%
    12:00 +33°C° 0 mm 5 mps 750 mmHg 46%
    13:00 +33°C° 0 mm 5 mps 750 mmHg 44%
    14:00 +33°C° 0 mm 5 mps 750 mmHg 44%
    15:00 +33°C° 0 mm 6 mps 750 mmHg 44%
    16:00 +33°C° 0 mm 6 mps 750 mmHg 44%
    17:00 +33°C° 0 mm 5 mps 750 mmHg 48%
    18:00 +32°C° 0 mm 5 mps 750 mmHg 52%
    19:00 +30°C° 0 mm 4 mps 750 mmHg 56%
    20:00 +28°C° 0 mm 4 mps 750 mmHg 61%
    21:00 +27°C° 0 mm 3 mps 750 mmHg 67%
    22:00 +25°C° 0 mm 3 mps 750 mmHg 72%
    23:00 +24°C° 0 mm 2 mps 750 mmHg 75%

    27 June, Wednesday

    Time Temperature Precipitation Wind Pressure Humidity
    00:00 +23°C° 0 mm 2 mps 750 mmHg 77%
    01:00 +21°C° 0 mm 2 mps 750 mmHg 80%
    02:00 +21°C° 0 mm 2 mps 750 mmHg 79%
    03:00 +20°C° 0 mm 2 mps 750 mmHg 79%
    04:00 +19°C° 0 mm 2 mps 750 mmHg 78%
    05:00 +21°C° 0 mm 2 mps 750 mmHg 72%
    06:00 +23°C° 0 mm 2 mps 750 mmHg 66%
    07:00 +24°C° 0 mm 2 mps 750 mmHg 59%
    08:00 +26°C° 0 mm 3 mps 750 mmHg 53%
    09:00 +27°C° 0 mm 3 mps 749 mmHg 47%
    10:00 +29°C° 0 mm 4 mps 749 mmHg 42%
    11:00 +30°C° 0 mm 4 mps 749 mmHg 39%
    12:00 +32°C° 0 mm 5 mps 749 mmHg 37%
    13:00 +33°C° 0 mm 5 mps 748 mmHg 35%
    14:00 +33°C° 0 mm 6 mps 748 mmHg 36%
    15:00 +33°C° 0 mm 6 mps 748 mmHg 37%
    16:00 +34°C° 0 mm 6 mps 748 mmHg 39%
    17:00 +33°C° 0 mm 5 mps 748 mmHg 42%
    18:00 +32°C° 0 mm 4 mps 748 mmHg 45%
    19:00 +30°C° 0 mm 4 mps 747 mmHg 48%
    20:00 +28°C° 0 mm 3 mps 748 mmHg 53%
    21:00 +27°C° 0 mm 3 mps 748 mmHg 59%
    22:00 +25°C° 0 mm 3 mps 748 mmHg 64%
    23:00 +24°C° 0 mm 3 mps 748 mmHg 70%

    28 June, Thursday

    Time Temperature Precipitation Wind Pressure Humidity
    00:00 +24°C° 0 mm 3 mps 748 mmHg 76%
    01:00 +22°C° 0 mm 3 mps 748 mmHg 82%
    02:00 +22°C° 0 mm 3 mps 748 mmHg 85%
    03:00 +21°C° 0 mm 3 mps 748 mmHg 88%
    04:00 +21°C° 0 mm 3 mps 748 mmHg 91%
    05:00 +22°C° 0 mm 3 mps 748 mmHg 84%
    06:00 +24°C° 0 mm 3 mps 748 mmHg 78%
    07:00 +26°C° 0 mm 3 mps 749 mmHg 71%
    08:00 +28°C° 0 mm 4 mps 748 mmHg 64%
    09:00 +30°C° 0 mm 4 mps 748 mmHg 56%
    10:00 +33°C° 0 mm 5 mps 748 mmHg 48%
    11:00 +33°C° 0 mm 5 mps 748 mmHg 46%
    12:00 +34°C° 0 mm 6 mps 748 mmHg 44%
    13:00 +35°C° 0 mm 6 mps 748 mmHg 41%
    14:00 +35°C° 0 mm 6 mps 748 mmHg 41%
    15:00 +35°C° 0 mm 7 mps 748 mmHg 40%
    16:00 +35°C° 0 mm 7 mps 748 mmHg 39%
    17:00 +34°C° 0 mm 6 mps 748 mmHg 44%
    18:00 +33°C° 0 mm 5 mps 748 mmHg 48%
    19:00 +32°C° 0 mm 4 mps 748 mmHg 53%
    20:00 +29°C° 0 mm 4 mps 748 mmHg 58%
    21:00 +28°C° 0 mm 4 mps 748 mmHg 64%
    22:00 +26°C° 0 mm 4 mps 748 mmHg 70%
    23:00 +25°C° 0 mm 4 mps 748 mmHg 73%

    29 June, Friday

    Time Temperature Precipitation Wind Pressure Humidity
    00:00 +23°C° 0 mm 4 mps 748 mmHg 77%
    01:00 +22°C° 0 mm 4 mps 748 mmHg 81%
    02:00 +22°C° 0 mm 4 mps 748 mmHg 83%
    03:00 +21°C° 0 mm 4 mps 748 mmHg 86%
    04:00 +20°C° 0 mm 3 mps 749 mmHg 88%
    05:00 +21°C° 0 mm 4 mps 749 mmHg 83%
    06:00 +22°C° 0 mm 4 mps 749 mmHg 77%
    07:00 +23°C° 0 mm 5 mps 749 mmHg 72%
    08:00 +26°C° 0 mm 5 mps 749 mmHg 63%
    09:00 +28°C° 0 mm 5 mps 749 mmHg 55%
    10:00 +30°C° 0 mm 5 mps 749 mmHg 46%
    11:00 +32°C° 0 mm 5 mps 749 mmHg 43%
    12:00 +32°C° 0 mm 5 mps 749 mmHg 40%
    13:00 +33°C° 0 mm 6 mps 749 mmHg 37%
    14:00 +33°C° 0 mm 5 mps 749 mmHg 37%
    15:00 +33°C° 0 mm 5 mps 749 mmHg 37%
    16:00 +33°C° 0 mm 5 mps 749 mmHg 37%
    17:00 +32°C° 0 mm 5 mps 749 mmHg 41%
    18:00 +30°C° 0 mm 5 mps 749 mmHg 45%
    19:00 +29°C° 0 mm 5 mps 750 mmHg 49%
    20:00 +27°C° 0 mm 4 mps 750 mmHg 54%
    21:00 +26°C° 0 mm 4 mps 750 mmHg 60%
    22:00 +23°C° 0 mm 4 mps 750 mmHg 66%
    23:00 +22°C° 0 mm 3 mps 750 mmHg 70%
    Show more